Stations météo

réclame
Mon MeteoGroup
La Coruna/Alvedro, Espagne (8002): Température de l'air & dewpoint: 13.11.2017 20:00:00 - 19.11.2017 20:00:00 (CET)La Coruna/Alvedro, Espagne (8002): Vitesse du vent: 13.11.2017 20:00:00 - 19.11.2017 20:00:00 (CET)La Coruna/Alvedro, Espagne (8002): Direction du vent: 13.11.2017 20:00:00 - 19.11.2017 20:00:00 (CET)La Coruna/Alvedro, Espagne (8002): reduced air pressure: 13.11.2017 20:00:00 - 19.11.2017 20:00:00 (CET)La Coruna/Alvedro, Espagne (8002): visibility: 13.11.2017 20:00:00 - 19.11.2017 20:00:00 (CET)La Coruna/Alvedro, Espagne (8002): Quantités de précipitations: 13.11.2017 20:00:00 - 19.11.2017 20:00:00 (CET)
Date & Time tt [°C] td [°C] ff [km/h] ff [knt] dd ppp [hPa] vv [km] rr [mm]
19.11.2017 20:00:00 10,3 7,4 5 3 S 1022,6 10 -
19.11.2017 19:00:00 12,2 8,1 0 0 N 1022,2 10 -
19.11.2017 18:00:00 14,3 8,6 0 0 N 1021,5 10 -
19.11.2017 17:00:00 15,7 9,9 8 4 NNE 1021,3 10 -
19.11.2017 16:00:00 16,9 9,4 5 3 NNE 1021,0 10 -
19.11.2017 15:00:00 17,7 10,0 4 2 NNE 1021,1 10 -
19.11.2017 14:00:00 18,4 10,1 0 0 N 1021,6 10 -
19.11.2017 13:00:00 16,2 9,6 5 3 S 1022,0 10 -
19.11.2017 12:00:00 12,8 8,1 9 5 S 1022,6 10 -
19.11.2017 11:00:00 9,6 5,8 8 4 S 1022,7 10 -
19.11.2017 10:00:00 5,6 4,6 8 4 S 1022,6 10 -
19.11.2017 09:00:00 5,0 4,6 11 6 S 1022,3 10 -
19.11.2017 08:00:00 3,4 3,1 5 3 S 1021,9 10 -
19.11.2017 07:00:00 3,6 3,3 9 5 S 1021,3 10 -
19.11.2017 06:00:00 3,8 3,5 11 6 S 1021,3 10 -
19.11.2017 05:00:00 4,4 4,1 11 6 S 1021,6 7 -
19.11.2017 04:00:00 4,4 4,1 11 6 S 1021,8 3,3 -
19.11.2017 03:00:00 4,8 4,5 5 3 S 1021,7 6 -
19.11.2017 02:00:00 5,0 4,6 5 3 S 1021,8 1,9 -
19.11.2017 01:00:00 6,4 5,8 8 4 S 1021,9 10 -
19.11.2017 00:00:00 8,3 7,5 0 0 N 1021,8 10 -
18.11.2017 23:00:00 8,2 7,0 5 3 S 1021,6 10 -
18.11.2017 22:00:00 9,3 7,9 8 4 SSE 1021,7 10 -
18.11.2017 21:00:00 10,9 8,5 4 2 S 1021,7 10 -
18.11.2017 20:00:00 12,3 8,9 2 1 - 1021,7 10 -
18.11.2017 19:00:00 13,3 9,4 0 0 N 1021,4 10 -
18.11.2017 18:00:00 14,6 9,7 2 1 - 1021,2 10 -
18.11.2017 17:00:00 16,8 9,6 5 3 NNE 1020,8 10 -
18.11.2017 16:00:00 17,7 9,6 4 2 - 1020,5 10 -
18.11.2017 15:00:00 16,7 8,1 4 2 NNE 1021,0 10 -
18.11.2017 14:00:00 17,4 8,7 4 2 - 1021,3 10 -
18.11.2017 13:00:00 16,0 8,5 2 1 - 1021,9 10 -
18.11.2017 12:00:00 13,8 7,8 0 0 N 1022,5 9 -
18.11.2017 11:00:00 9,3 7,6 0 0 N 1022,7 10 -
18.11.2017 10:00:00 5,0 4,6 5 3 SSW 1022,9 9 -
18.11.2017 09:00:00 3,5 3,3 5 3 SSW 1022,6 7 -
18.11.2017 08:00:00 3,3 3,2 8 4 S 1022,2 3,0 -
18.11.2017 07:00:00 3,0 2,7 5 3 S 1021,9 0,5 0,0
18.11.2017 06:00:00 3,5 3,2 4 2 S 1022,1 0,6 -
18.11.2017 05:00:00 3,6 3,3 5 3 S 1022,4 0,2 -
18.11.2017 04:00:00 3,5 3,2 5 3 SSW 1022,7 1,9 -
18.11.2017 03:00:00 5,3 5,0 2 1 - 1022,3 3,6 -
18.11.2017 02:00:00 5,5 5,2 0 0 N 1022,4 3,7 -
18.11.2017 01:00:00 6,2 5,8 4 2 SSW 1022,9 3,5 -
18.11.2017 00:00:00 7,6 6,4 8 4 S 1022,9 7 -
17.11.2017 23:00:00 8,9 7,5 2 1 SSE 1023,0 8 -
17.11.2017 22:00:00 9,9 8,5 0 0 N 1022,5 10 -
17.11.2017 21:00:00 10,8 9,6 2 1 SSE 1022,3 10 -
17.11.2017 20:00:00 12,0 9,0 0 0 N 1022,1 10 -
17.11.2017 19:00:00 12,5 9,5 2 1 - 1021,8 10 -
17.11.2017 18:00:00 13,9 9,9 4 2 - 1021,3 10 -
17.11.2017 17:00:00 15,4 10,2 4 2 - 1020,9 10 -
17.11.2017 16:00:00 16,0 9,9 0 0 N 1021,2 10 -
17.11.2017 15:00:00 15,8 9,7 2 1 - 1021,6 10 -
17.11.2017 14:00:00 15,0 9,6 2 1 - 1022,0 10 -
17.11.2017 13:00:00 13,4 9,6 0 0 N 1022,5 10 -
17.11.2017 12:00:00 10,8 10,3 0 0 N 1023,3 10 -
17.11.2017 11:00:00 8,3 8,2 0 0 N 1023,4 10 -
17.11.2017 10:00:00 5,8 5,7 4 2 S 1023,5 1,0 -
17.11.2017 09:00:00 4,5 4,4 5 3 S 1023,6 0,1 -
17.11.2017 08:00:00 4,8 4,7 4 2 S 1023,2 0,1 -
17.11.2017 07:00:00 5,7 5,6 5 3 S 1022,9 0,1 -
17.11.2017 06:00:00 5,9 5,8 5 3 S 1023,0 0,1 -
17.11.2017 05:00:00 6,8 6,7 5 3 SSW 1022,8 0,1 -
17.11.2017 04:00:00 7,7 7,6 4 2 SSW 1023,0 0,1 -
17.11.2017 03:00:00 8,4 8,3 2 1 - 1023,0 0,1 -
17.11.2017 02:00:00 8,8 8,5 2 1 S 1023,1 0,2 -
17.11.2017 01:00:00 8,8 8,5 2 1 - 1023,3 0,1 -
17.11.2017 00:00:00 8,8 8,5 4 2 SSW 1023,3 0,2 -
16.11.2017 23:00:00 8,7 8,2 0 0 N 1023,2 0,8 -
16.11.2017 22:00:00 9,5 8,6 0 0 N 1022,9 0,3 -
16.11.2017 21:00:00 10,6 9,2 2 1 NW 1022,8 10 -
16.11.2017 20:00:00 11,6 9,8 2 1 - 1022,6 10 -
16.11.2017 19:00:00 12,4 10,5 2 1 - 1022,1 10 -
16.11.2017 18:00:00 13,4 11,1 2 1 - 1021,9 10 -
16.11.2017 17:00:00 14,2 11,4 2 1 - 1021,5 10 -
16.11.2017 16:00:00 14,3 11,4 9 5 NNW 1021,6 10 -
16.11.2017 15:00:00 14,4 10,5 9 5 N 1021,7 10 -
16.11.2017 14:00:00 15,1 9,8 5 3 N 1022,0 10 -
16.11.2017 13:00:00 14,0 6,1 0 0 N 1022,3 10 -
16.11.2017 12:00:00 11,8 7,5 0 0 N 1022,7 10 -
16.11.2017 11:00:00 8,4 5,9 5 3 S 1022,9 10 -
16.11.2017 10:00:00 4,4 3,7 8 4 S 1022,8 9 -
16.11.2017 09:00:00 3,7 3,1 9 5 S 1022,2 9 -
16.11.2017 08:00:00 3,5 3,1 9 5 S 1021,7 7 -
16.11.2017 07:00:00 3,3 2,9 5 3 S 1021,5 7 -
16.11.2017 06:00:00 3,0 2,6 9 5 S 1021,0 3,0 -
16.11.2017 05:00:00 4,2 3,8 9 5 S 1020,8 10 -
16.11.2017 04:00:00 4,1 3,7 9 5 S 1020,9 7 -
16.11.2017 03:00:00 5,2 4,9 5 3 S 1020,8 9 -
16.11.2017 02:00:00 5,3 5,0 13 7 S 1020,7 6 -
16.11.2017 01:00:00 6,0 5,6 9 5 S 1020,7 4,5 -
16.11.2017 00:00:00 6,5 6,1 9 5 S 1020,6 5 -
15.11.2017 23:00:00 7,6 7,0 9 5 S 1020,9 7 -
15.11.2017 22:00:00 8,3 7,4 9 5 S 1020,9 9 -
15.11.2017 21:00:00 8,6 7,2 5 3 S 1020,6 10 -
15.11.2017 20:00:00 10,5 8,1 4 2 SSW 1020,6 10 -
15.11.2017 19:00:00 11,5 8,9 0 0 N 1020,3 10 -
15.11.2017 18:00:00 13,3 9,7 5 3 N 1020,0 10 -
15.11.2017 17:00:00 15,1 7,7 9 5 N 1019,5 10 -
15.11.2017 16:00:00 15,7 8,4 8 4 NNE 1019,1 10 -
15.11.2017 15:00:00 15,4 6,7 8 4 NNE 1019,3 10 -
15.11.2017 14:00:00 16,1 6,9 5 3 NNE 1019,6 10 -
15.11.2017 13:00:00 16,3 7,2 2 1 - 1020,2 10 -
15.11.2017 12:00:00 15,1 6,0 2 1 - 1020,9 10 -
15.11.2017 11:00:00 10,6 6,3 9 5 S 1021,0 10 -
15.11.2017 10:00:00 7,0 4,6 11 6 S 1020,6 10 -
15.11.2017 09:00:00 5,2 4,2 9 5 S 1020,3 10 -
15.11.2017 08:00:00 4,9 4,0 5 3 S 1019,8 10 -
15.11.2017 07:00:00 4,9 4,3 4 2 - 1019,4 10 -
15.11.2017 06:00:00 5,0 4,3 5 3 S 1019,3 10 -
15.11.2017 05:00:00 5,0 4,3 5 3 S 1019,2 10 -
15.11.2017 04:00:00 5,4 4,5 2 1 - 1019,3 10 -
15.11.2017 03:00:00 5,2 4,6 8 4 S 1019,3 10 -
15.11.2017 02:00:00 6,4 5,0 5 3 S 1019,6 10 -
15.11.2017 01:00:00 6,0 5,0 4 2 - 1020,1 10 -
15.11.2017 00:00:00 6,7 5,6 8 4 S 1020,2 10 -
14.11.2017 23:00:00 7,0 5,8 2 1 - 1020,6 10 -
14.11.2017 22:00:00 7,6 6,1 8 4 S 1020,7 10 -
14.11.2017 21:00:00 10,1 6,4 0 0 N 1020,6 10 -
14.11.2017 20:00:00 10,7 6,8 0 0 N 1020,7 10 -
14.11.2017 19:00:00 11,7 7,2 0 0 N 1020,3 10 -
14.11.2017 18:00:00 13,6 6,2 2 1 NW 1020,1 10 -
14.11.2017 17:00:00 15,7 6,4 4 2 - 1020,3 10 -
14.11.2017 16:00:00 15,5 5,5 5 3 NNE 1020,5 10 -
14.11.2017 15:00:00 15,1 5,3 2 1 - 1021,1 10 -
14.11.2017 14:00:00 14,7 5,2 4 2 - 1021,9 10 -
14.11.2017 13:00:00 14,1 4,6 5 3 SE 1022,8 10 -
14.11.2017 12:00:00 11,5 4,7 0 0 N 1024,0 10 -
14.11.2017 11:00:00 10,2 5,1 4 2 SSE 1024,4 10 -
14.11.2017 10:00:00 7,3 4,1 5 3 S 1024,8 10 -
14.11.2017 09:00:00 3,8 2,9 5 3 S 1024,9 10 -
14.11.2017 08:00:00 2,5 1,8 5 3 S 1025,0 10 -
14.11.2017 07:00:00 3,2 2,5 5 3 S 1024,9 10 -
14.11.2017 06:00:00 3,5 2,5 4 2 SSW 1025,0 10 -
14.11.2017 05:00:00 3,9 2,4 4 2 SSW 1024,7 10 -
14.11.2017 04:00:00 6,6 3,7 0 0 N 1025,1 10 -
14.11.2017 03:00:00 6,2 3,4 2 1 - 1025,5 10 -
14.11.2017 02:00:00 6,9 3,7 0 0 N 1025,6 10 -
14.11.2017 01:00:00 7,2 3,8 0 0 N 1026,1 10 -
14.11.2017 00:00:00 7,8 4,2 0 0 N 1026,5 10 -
13.11.2017 23:00:00 8,6 4,4 0 0 N 1026,9 10 -
13.11.2017 22:00:00 9,3 4,7 2 1 - 1027,0 10 -
13.11.2017 21:00:00 9,8 4,6 4 2 - 1027,0 10 -
13.11.2017 20:00:00 10,3 5,1 4 2 - 1027,2 10 -

tt = Température de l'air
td = dewpoint
ff = Vitesse du vent
dd = Direction du vent
ppp = reduced air pressure
vv = visibility
rr = Quantités de précipitations

stations d'obs. à proximité